Weather History for KSPW - September, 2012

Change the Weather History Date:

Sunday, September 23, 2012

  Actual Average Record
Temperature  
Mean Temperature 44 °F -  
Max Temperature 64 °F 68 °F 88 °F (2007)
Min Temperature 25 °F 40 °F 25 °F (2012)
Degree Days  
Heating Degree Days 20    
Moisture  
Dew Point 25 °F    
Average Humidity 54    
Maximum Humidity 88    
Minimum Humidity 19    
Precipitation  
Precipitation 0.00 in - - ()
Sea Level Pressure  
Sea Level Pressure 30.31 in    
Wind  
Wind Speed 3 mph (West)    
Max Wind Speed 8 mph    
Max Gust Speed -    
Visibility 10 miles    
Events      
Averages and records for this station are not official NWS values.
T = Trace of Precipitation, MM = Missing Value Source: NWS Daily Summary

Daily Weather History Graph

Daily Weather History Graph

Search for Another Location

Airport or City:

Trip Planner

Search our weather history database for the weather conditions in past years. The results will help you decide how hot, cold, wet, or windy it might be!

Date:

Astronomy

Sep. 23, 2012 Rise Set
Actual Time 7:09 AM CDT 7:15 PM CDT
Civil Twilight 6:41 AM CDT 7:43 PM CDT
Nautical Twilight 6:08 AM CDT 8:16 PM CDT
Astronomical Twilight 5:34 AM CDT 8:50 PM CDT
Moon 3:25 PM CDT (9/23) 12:13 AM CDT (9/23)
Length of Visible Light 13h 02m
Length of Day
12h 05m
First Quarter, 60% of the Moon is Illuminated
Sep 23
First Quarter
Sep 29
Full
Oct 8
Last Quarter
Oct 15
New
Oct 21
First Quarter

Hourly Weather History & Observations

Time (CDT) Temp. Windchill Dew Point Humidity Pressure Visibility Wind Dir Wind Speed Gust Speed Precip Events Conditions
12:53 AM 30.0 °F 26.5 °F 24.1 °F 79% 30.32 in 10.0 mi West 3.5 mph - N/A   Clear
1:53 AM 30.0 °F - 24.1 °F 79% 30.33 in 10.0 mi Calm Calm - N/A   Clear
2:53 AM 27.0 °F 23.0 °F 21.9 °F 81% 30.34 in 10.0 mi West 3.5 mph - N/A   Clear
3:53 AM 27.0 °F 21.6 °F 23.0 °F 85% 30.34 in 10.0 mi WNW 4.6 mph - N/A   Clear
4:53 AM 28.0 °F 22.8 °F 24.1 °F 85% 30.35 in 10.0 mi WNW 4.6 mph - N/A   Clear
5:53 AM 25.0 °F 18.1 °F 21.9 °F 88% 30.35 in 10.0 mi WNW 5.8 mph - N/A   Clear
6:53 AM 27.0 °F - 23.0 °F 85% 30.35 in 10.0 mi Calm Calm - N/A   Clear
7:53 AM 28.0 °F 24.2 °F 24.1 °F 85% 30.38 in 10.0 mi WNW 3.5 mph - N/A   Clear
8:53 AM 37.9 °F 35.5 °F 30.0 °F 73% 30.38 in 10.0 mi WNW 3.5 mph - N/A   Clear
9:53 AM 50.0 °F - 30.0 °F 46% 30.38 in 10.0 mi Calm Calm - N/A   Clear
10:53 AM 54.0 °F - 27.0 °F 35% 30.38 in 10.0 mi North 8.1 mph - N/A   Clear
11:53 AM 54.0 °F - 26.1 °F 34% 30.38 in 10.0 mi Calm Calm - N/A   Clear
12:53 PM 57.9 °F - 26.1 °F 30% 30.36 in 10.0 mi West 6.9 mph - N/A   Clear
1:53 PM 57.9 °F - 25.0 °F 28% 30.33 in 10.0 mi Variable 4.6 mph - N/A   Clear
2:53 PM 61.0 °F - 23.0 °F 23% 30.30 in 10.0 mi Calm Calm - N/A   Clear
3:53 PM 63.0 °F - 23.0 °F 22% 30.28 in 10.0 mi Variable 3.5 mph - N/A   Clear
4:53 PM 64.0 °F - 21.9 °F 20% 30.26 in 10.0 mi West 5.8 mph - N/A   Clear
5:53 PM 64.0 °F - 21.0 °F 19% 30.25 in 10.0 mi Calm Calm - N/A   Clear
6:53 PM 59.0 °F - 25.0 °F 27% 30.24 in 10.0 mi Calm Calm - N/A   Clear
7:53 PM 48.9 °F - 24.1 °F 38% 30.26 in 10.0 mi SSE 4.6 mph - N/A   Clear
8:53 PM 46.0 °F 43.9 °F 26.1 °F 46% 30.25 in 10.0 mi South 4.6 mph - N/A   Clear
9:53 PM 41.0 °F 39.0 °F 30.0 °F 65% 30.24 in 10.0 mi ESE 3.5 mph - N/A   Clear
10:53 PM 37.9 °F - 28.9 °F 70% 30.23 in 10.0 mi Calm Calm - N/A   Clear
11:53 PM 39.9 °F 37.8 °F 28.0 °F 63% 30.21 in 10.0 mi South 3.5 mph - N/A   Clear